LVCUE SABE-SADF

Flight info

Callsign LVCUE
Flight time 0h 7m
Altitude 2000
Route FDO
Aircraft LJ35/M-SGHRWXY/SB1

Departure

Time 2026-05-08 02:46
Airport Aeroparque Jorge Newbery (SABE)

Arrival

Time 2026-05-08 02:53
Airport San Fernando Airport (SADF)
Time Latitude Longitude Altitude Speed Heading
2026-05-08 02:32 -34.56463 -58.40923 21 ft 0 kts 36°
2026-05-08 02:40 -34.56461 -58.40918 21 ft 2 kts 84°
2026-05-08 02:40 -34.56477 -58.40923 22 ft 6 kts 234°
2026-05-08 02:40 -34.56513 -58.40908 21 ft 8 kts 116°
2026-05-08 02:40 -34.56503 -58.40832 22 ft 12 kts 65°
2026-05-08 02:41 -34.56482 -58.40777 21 ft 0 kts 65°
2026-05-08 02:44 -34.56475 -58.40757 20 ft 8 kts 65°
2026-05-08 02:44 -34.56426 -58.40676 19 ft 7 kts 358°
2026-05-08 02:44 -34.56408 -58.40705 19 ft 0 kts 304°
2026-05-08 02:46 -34.56404 -58.40712 19 ft 12 kts 303°
2026-05-08 02:46 -34.56142 -58.41183 23 ft 123 kts 303°
2026-05-08 02:46 -34.55536 -58.42226 852 ft 165 kts 302°
2026-05-08 02:46 -34.54785 -58.43446 2076 ft 207 kts 302°
2026-05-08 02:47 -34.53584 -58.44728 2271 ft 247 kts 326°
2026-05-08 02:47 -34.51869 -58.45213 2231 ft 253 kts 354°
2026-05-08 02:47 -34.50153 -58.45075 2158 ft 246 kts 359°
2026-05-08 02:47 -34.48485 -58.45011 2050 ft 231 kts 352°
2026-05-08 02:48 -34.46937 -58.45105 1996 ft 215 kts 349°
2026-05-08 02:48 -34.45493 -58.45208 1988 ft 200 kts 349°
2026-05-08 02:48 -34.44096 -58.45288 1984 ft 202 kts 349°
2026-05-08 02:48 -34.42680 -58.45357 1981 ft 205 kts 350°
2026-05-08 02:49 -34.41325 -58.45696 1971 ft 192 kts 323°
2026-05-08 02:49 -34.40363 -58.46741 1984 ft 184 kts 305°
2026-05-08 02:49 -34.39553 -58.47859 1971 ft 167 kts 298°
2026-05-08 02:49 -34.39133 -58.49017 1978 ft 135 kts 279°
2026-05-08 02:50 -34.39036 -58.50034 1965 ft 110 kts 265°
2026-05-08 02:50 -34.39130 -58.50869 1950 ft 92 kts 253°
2026-05-08 02:50 -34.39351 -58.51607 1784 ft 98 kts 245°
2026-05-08 02:50 -34.39704 -58.52309 1704 ft 97 kts 236°
2026-05-08 02:51 -34.40183 -58.52911 1464 ft 102 kts 228°
2026-05-08 02:51 -34.40691 -58.53498 1280 ft 101 kts 229°
2026-05-08 02:51 -34.41195 -58.54087 1086 ft 101 kts 230°
2026-05-08 02:51 -34.41702 -58.54683 903 ft 102 kts 231°
2026-05-08 02:52 -34.42218 -58.55284 743 ft 103 kts 230°
2026-05-08 02:52 -34.42732 -58.55888 642 ft 102 kts 229°
2026-05-08 02:52 -34.43241 -58.56488 518 ft 106 kts 229°
2026-05-08 02:52 -34.43803 -58.57145 294 ft 115 kts 231°
2026-05-08 02:53 -34.44377 -58.57808 154 ft 116 kts 230°
2026-05-08 02:53 -34.44954 -58.58489 44 ft 116 kts 228°
2026-05-08 02:53 -34.45454 -58.59094 21 ft 74 kts 221°
2026-05-08 02:53 -34.45637 -58.59299 22 ft 20 kts 213°
2026-05-08 02:54 -34.45702 -58.59293 21 ft 8 kts 148°
2026-05-08 02:54 -34.45749 -58.59259 21 ft 8 kts 150°
2026-05-08 02:54 -34.45798 -58.59223 21 ft 8 kts 148°
2026-05-08 02:54 -34.45840 -58.59180 21 ft 8 kts 97°
2026-05-08 02:55 -34.45830 -58.59140 21 ft 8 kts 63°
2026-05-08 02:55 -34.45773 -58.59007 21 ft 10 kts 63°
2026-05-08 02:55 -34.45738 -58.58925 21 ft 12 kts 62°
2026-05-08 02:56 -34.45682 -58.58796 21 ft 14 kts 62°
2026-05-08 02:56 -34.45651 -58.58720 21 ft 16 kts 64°
2026-05-08 02:56 -34.45596 -58.58593 21 ft 18 kts 62°
2026-05-08 02:56 -34.45534 -58.58447 21 ft 21 kts 69°
2026-05-08 02:57 -34.45472 -58.58303 21 ft 18 kts 62°
2026-05-08 02:57 -34.45412 -58.58168 22 ft 18 kts 62°
2026-05-08 02:57 -34.45376 -58.58077 23 ft 10 kts 84°
2026-05-08 02:57 -34.45403 -58.58045 21 ft 6 kts 152°
2026-05-08 02:58 -34.45414 -58.58038 21 ft 0 kts 152°